Goshen, IN

1:06 PM EDT on April 26, 2017 (GMT -0400)
Goshen Municipal

Weather History for KGSH - April, 2013

Change the Weather History Date:

Thursday, April 11, 2013

  Actual Average Record
Temperature  
Mean Temperature 42 °F -  
Max Temperature 44 °F 56 °F 82 °F (1977)
Min Temperature 39 °F 35 °F 20 °F (1952)
Degree Days  
Heating Degree Days 24    
Moisture  
Dew Point 40 °F    
Average Humidity 89    
Maximum Humidity 93    
Minimum Humidity 81    
Precipitation  
Precipitation 1.58 in - - ()
Sea Level Pressure  
Sea Level Pressure 29.73 in    
Wind  
Wind Speed 15 mph (East)    
Max Wind Speed 25 mph    
Max Gust Speed 41 mph    
Visibility 4 miles    
Events Rain , Thunderstorm    
Averages and records for this station are not official NWS values.
T = Trace of Precipitation, MM = Missing Value Source: NWS Daily Summary

Daily Weather History Graph

Daily Weather History Graph

Search for Another Location

Airport or City:

Trip Planner

Search our weather history database for the weather conditions in past years. The results will help you decide how hot, cold, wet, or windy it might be!

Date:

Astronomy

Apr. 11, 2013 Rise Set
Actual Time 7:09 AM EDT 8:19 PM EDT
Civil Twilight 6:40 AM EDT 8:48 PM EDT
Nautical Twilight 6:06 AM EDT 9:22 PM EDT
Astronomical Twilight 5:31 AM EDT 9:58 PM EDT
Moon 7:39 AM EDT (4/11) 9:54 PM EDT (4/11)
Length of Visible Light 14h 07m
Length of Day
13h 10m
New Moon, 2% of the Moon is Illuminated
Apr 11
New Moon
Apr 18
First Quarter
Apr 25
Full
May 2
Last Quarter
May 9
New

Hourly Weather History & Observations

Time (EDT) Temp. Windchill Dew Point Humidity Pressure Visibility Wind Dir Wind Speed Gust Speed Precip Events Conditions
12:49 AM 44.6 °F 36.4 °F 42.8 °F 93% 29.82 in 2.5 mi East 20.7 mph 26.5 mph 0.06 in Rain , Thunderstorm Light Thunderstorms and Rain
12:53 AM 44.1 °F 35.7 °F 41.0 °F 89% 29.85 in 3.0 mi East 20.7 mph 26.5 mph 0.07 in Rain , Thunderstorm Light Thunderstorms and Rain
1:04 AM 44.6 °F 43.1 °F 42.8 °F 93% 29.88 in 4.0 mi Variable 3.5 mph 24.2 mph 0.01 in Rain Light Rain
1:12 AM 44.6 °F 35.7 °F 41.0 °F 87% 29.79 in 2.5 mi East 24.2 mph 29.9 mph 0.12 in Rain , Thunderstorm Thunderstorms and Rain
1:20 AM 44.6 °F 36.4 °F 41.0 °F 87% 29.79 in 1.2 mi ENE 20.7 mph 31.1 mph 0.26 in Rain , Thunderstorm Heavy Thunderstorms and Rain
1:25 AM 44.6 °F 39.7 °F 41.0 °F 87% 29.83 in 2.0 mi NE 9.2 mph 31.1 mph 0.27 in Rain , Thunderstorm Thunderstorms and Rain
1:27 AM 44.6 °F 38.8 °F 41.0 °F 87% 29.83 in 3.0 mi NNE 11.5 mph 31.1 mph 0.27 in Rain , Thunderstorm Light Thunderstorms and Rain
1:41 AM 44.6 °F 35.5 °F 41.0 °F 87% 29.78 in 2.0 mi ENE 25.3 mph 33.4 mph 0.40 in Rain , Thunderstorm Heavy Thunderstorms and Rain
1:49 AM 44.6 °F 38.8 °F 41.0 °F 87% 29.82 in 3.0 mi NE 11.5 mph 33.4 mph 0.44 in Rain , Thunderstorm Light Thunderstorms and Rain
1:53 AM 44.1 °F 38.1 °F 41.0 °F 89% 29.81 in 4.0 mi ENE 11.5 mph 18.4 mph 0.46 in Rain , Thunderstorm Thunderstorms and Rain
2:00 AM 42.8 °F 33.1 °F 41.0 °F 93% 29.77 in 1.8 mi East 25.3 mph 32.2 mph 0.11 in Rain , Thunderstorm Heavy Thunderstorms and Rain
2:07 AM 42.8 °F 35.1 °F 41.0 °F 93% 29.80 in 1.5 mi East 16.1 mph 32.2 mph 0.21 in Rain , Thunderstorm Heavy Thunderstorms and Rain
2:14 AM 44.6 °F 40.2 °F 41.0 °F 87% 29.83 in 3.0 mi NW 8.1 mph 26.5 mph 0.21 in Rain , Thunderstorm Light Thunderstorms and Rain
2:22 AM 44.6 °F 35.5 °F 41.0 °F 87% 29.77 in 7.0 mi East 25.3 mph 29.9 mph 0.22 in Rain , Thunderstorm Light Thunderstorms and Rain
2:31 AM 44.6 °F 36.6 °F 41.0 °F 87% 29.79 in 2.5 mi East 19.6 mph 28.8 mph 0.32 in Rain , Thunderstorm Heavy Thunderstorms and Rain
2:35 AM 44.6 °F 37.4 °F 41.0 °F 87% 29.80 in 2.5 mi ENE 16.1 mph 25.3 mph 0.36 in Rain , Thunderstorm Heavy Thunderstorms and Rain
2:48 AM 44.6 °F 40.2 °F 41.0 °F 87% 29.88 in 1.5 mi NNW 8.1 mph 41.4 mph 0.52 in Rain , Thunderstorm Heavy Thunderstorms and Rain
2:53 AM 44.1 °F 39.5 °F 41.0 °F 89% 29.88 in 2.5 mi ENE 8.1 mph - 0.53 in Rain Light Rain
2:58 AM 44.6 °F 39.2 °F 41.0 °F 87% 29.85 in 6.0 mi East 10.4 mph - 0.00 in Rain Light Rain
3:53 AM 44.1 °F 37.4 °F 39.9 °F 85% 29.79 in 10.0 mi East 13.8 mph - 0.05 in Rain Light Rain
4:38 AM 44.6 °F 39.7 °F 39.2 °F 81% 29.81 in 7.0 mi ENE 9.2 mph - 0.04 in Rain Light Rain
4:53 AM 44.1 °F 39.5 °F 39.9 °F 85% 29.80 in 10.0 mi East 8.1 mph - 0.04 in Rain Light Rain
5:11 AM 44.6 °F 37.8 °F 39.2 °F 81% 29.79 in 10.0 mi ENE 15.0 mph 19.6 mph N/A   Overcast
5:42 AM 44.6 °F 37.4 °F 39.2 °F 81% 29.77 in 10.0 mi East 16.1 mph - N/A   Overcast
5:53 AM 43.0 °F 35.4 °F 39.0 °F 86% 29.78 in 10.0 mi East 16.1 mph 21.9 mph N/A   Overcast
6:19 AM 42.8 °F 35.4 °F 39.2 °F 87% 29.77 in 10.0 mi East 15.0 mph - 0.00 in Rain Light Rain
6:45 AM 42.8 °F 35.8 °F 39.2 °F 87% 29.77 in 10.0 mi East 13.8 mph - 0.00 in   Overcast
6:53 AM 43.0 °F 36.0 °F 39.9 °F 89% 29.80 in 10.0 mi East 13.8 mph - 0.00 in Rain Light Rain
7:53 AM 43.0 °F 36.0 °F 39.9 °F 89% 29.78 in 10.0 mi East 13.8 mph - 0.01 in   Overcast
8:53 AM 44.1 °F 36.5 °F 39.9 °F 85% 29.77 in 9.0 mi East 17.3 mph - N/A   Overcast
9:53 AM 44.1 °F 36.5 °F 39.9 °F 85% 29.75 in 9.0 mi East 17.3 mph 23.0 mph N/A   Unknown
12:27 PM 42.8 °F 34.5 °F 39.2 °F 87% 29.72 in 2.5 mi East 18.4 mph 25.3 mph N/A Rain Light Rain
1:15 PM 42.8 °F 34.3 °F 39.2 °F 87% 29.72 in 1.8 mi East 19.6 mph 26.5 mph 0.02 in Rain Light Rain
1:30 PM 42.8 °F 35.1 °F 39.2 °F 87% 29.71 in 2.5 mi East 16.1 mph 25.3 mph 0.04 in Rain Light Rain
1:53 PM 43.0 °F 36.0 °F 41.0 °F 93% 29.69 in 2.5 mi East 13.8 mph - 0.05 in Rain Light Rain
2:00 PM 42.8 °F 34.8 °F 41.0 °F 93% 29.68 in 4.0 mi East 17.3 mph - 0.00 in Rain Light Rain
2:39 PM 42.8 °F 34.8 °F 41.0 °F 93% 29.67 in 1.8 mi East 17.3 mph 25.3 mph 0.01 in Rain Light Rain
2:53 PM 43.0 °F 35.4 °F 41.0 °F 93% 29.67 in 2.0 mi East 16.1 mph - 0.01 in Rain Light Rain
3:17 PM 42.8 °F 36.6 °F 41.0 °F 93% 29.68 in 1.2 mi East 11.5 mph 18.4 mph 0.01 in Rain Light Rain
3:33 PM 44.6 °F 38.1 °F 41.0 °F 87% 29.68 in 2.5 mi East 13.8 mph - 0.03 in Rain Light Rain
3:46 PM 44.6 °F 37.8 °F 41.0 °F 87% 29.68 in 5.0 mi East 15.0 mph - 0.04 in Rain Light Rain
3:53 PM 44.1 °F 37.4 °F 41.0 °F 89% 29.67 in 6.0 mi East 13.8 mph - 0.04 in Rain Light Rain
4:25 PM 42.8 °F 36.6 °F 41.0 °F 93% 29.65 in 1.8 mi East 11.5 mph 21.9 mph 0.00 in   Overcast
4:53 PM 43.0 °F 35.4 °F 41.0 °F 93% 29.64 in 1.2 mi East 16.1 mph - 0.00 in Rain Light Rain
5:16 PM 42.8 °F 35.8 °F 41.0 °F 93% 29.63 in 2.0 mi East 13.8 mph - 0.00 in Rain Light Rain
5:53 PM 43.0 °F 38.2 °F 41.0 °F 93% 29.65 in 1.8 mi ESE 8.1 mph 18.4 mph 0.03 in Rain Light Rain
6:03 PM 42.8 °F 37.5 °F 41.0 °F 93% 29.64 in 2.0 mi ESE 9.2 mph - 0.01 in Rain Light Rain
6:53 PM 42.1 °F 36.6 °F 39.9 °F 92% 29.62 in 3.0 mi East 9.2 mph - 0.08 in Rain Light Rain
7:53 PM 42.1 °F 38.4 °F 39.0 °F 89% 29.63 in 5.0 mi ESE 5.8 mph - 0.04 in Rain Light Rain
8:10 PM 42.8 °F 38.0 °F 39.2 °F 87% 29.64 in 7.0 mi East 8.1 mph - 0.01 in Rain Light Rain
8:35 PM 41.0 °F 35.2 °F 39.2 °F 93% 29.63 in 2.0 mi East 9.2 mph - 0.05 in Rain Rain
8:53 PM 41.0 °F 34.3 °F 37.9 °F 89% 29.61 in 2.5 mi East 11.5 mph - 0.07 in Rain Light Rain
9:04 PM 41.0 °F 34.7 °F 37.4 °F 87% 29.61 in 3.0 mi East 10.4 mph - 0.01 in Rain Light Rain
9:24 PM 41.0 °F 34.7 °F 37.4 °F 87% 29.61 in 3.0 mi East 10.4 mph - 0.02 in Rain Light Rain
9:34 PM 41.0 °F 35.2 °F 37.4 °F 87% 29.61 in 2.5 mi East 9.2 mph - 0.04 in Rain Light Rain
9:46 PM 41.0 °F 35.8 °F 37.4 °F 87% 29.59 in 3.0 mi East 8.1 mph - 0.05 in Rain Light Rain
9:53 PM 41.0 °F 35.8 °F 37.9 °F 89% 29.60 in 3.0 mi East 8.1 mph - 0.05 in Rain Light Rain
10:53 PM 39.9 °F 34.5 °F 37.9 °F 93% 29.59 in 2.5 mi East 8.1 mph - 0.04 in Rain Light Rain
11:01 PM 39.2 °F 33.0 °F 37.4 °F 93% 29.59 in 4.0 mi East 9.2 mph - 0.00 in Rain Light Rain
11:53 PM 39.9 °F 35.8 °F 37.9 °F 93% 29.59 in 4.0 mi East 5.8 mph - 0.01 in   Overcast